Whitefield, NH

6:58 AM EDT on May 25, 2017 (GMT -0400)
Mount Washington Regional

Weather History for KHIE - October, 2012

Change the Weather History Date:

Tuesday, October 9, 2012

  Actual Average Record
Temperature  
Mean Temperature 42 °F -  
Max Temperature 55 °F 58 °F 78 °F (2011)
Min Temperature 28 °F 31 °F 19 °F (2001)
Degree Days  
Heating Degree Days 24    
Moisture  
Dew Point 33 °F    
Average Humidity 81    
Maximum Humidity 96    
Minimum Humidity 51    
Precipitation  
Precipitation 0.00 in - - ()
Sea Level Pressure  
Sea Level Pressure 30.28 in    
Wind  
Wind Speed 2 mph (South)    
Max Wind Speed 16 mph    
Max Gust Speed 21 mph    
Visibility 7 miles    
Events Fog    
Averages and records for this station are not official NWS values.
T = Trace of Precipitation, MM = Missing Value Source: NWS Daily Summary

Daily Weather History Graph

Daily Weather History Graph

Search for Another Location

Airport or City:

Trip Planner

Search our weather history database for the weather conditions in past years. The results will help you decide how hot, cold, wet, or windy it might be!

Date:

Astronomy

Oct. 09, 2012 Rise Set
Actual Time 6:54 AM EDT 6:11 PM EDT
Civil Twilight 6:25 AM EDT 6:40 PM EDT
Nautical Twilight 5:51 AM EDT 7:14 PM EDT
Astronomical Twilight 5:17 AM EDT 7:47 PM EDT
Moon 12:14 AM EDT (10/9) 2:49 PM EDT (10/9)
Length of Visible Light 12h 15m
Length of Day
11h 17m
Last Quarter, 37% of the Moon is Illuminated
Oct 9
Last Quarter
Oct 15
New
Oct 21
First Quarter
Oct 29
Full
Nov 6
Last Quarter

Hourly Weather History & Observations

Time (EDT) Temp. Windchill Dew Point Humidity Pressure Visibility Wind Dir Wind Speed Gust Speed Precip Events Conditions
12:37 AM 30.2 °F - 28.4 °F 93% 30.31 in 1.5 mi Calm Calm - N/A   Scattered Clouds
12:41 AM 30.2 °F - 28.4 °F 93% 30.31 in 0.8 mi Calm Calm - N/A   Mist
12:50 AM 30.2 °F - 28.4 °F 93% 30.31 in 1.2 mi Calm Calm - N/A   Mostly Cloudy
12:52 AM 30.9 °F - 28.9 °F 92% 30.35 in 2.0 mi Calm Calm - N/A   Mostly Cloudy
1:13 AM 30.2 °F - 28.4 °F 93% 30.31 in 0.5 mi Calm Calm - N/A Fog Light Freezing Fog
1:20 AM 30.2 °F - 28.4 °F 93% 30.30 in 1.2 mi Calm Calm - N/A   Partly Cloudy
1:23 AM 30.2 °F - 28.4 °F 93% 30.30 in 4.0 mi Calm Calm - N/A   Partly Cloudy
1:52 AM 30.0 °F - 28.0 °F 92% 30.35 in 10.0 mi Calm Calm - N/A   Scattered Clouds
2:02 AM 30.2 °F - 28.4 °F 93% 30.32 in 3.0 mi Calm Calm - N/A   Mostly Cloudy
2:06 AM 30.2 °F - 28.4 °F 93% 30.31 in 1.5 mi Calm Calm - N/A   Mostly Cloudy
2:08 AM 30.2 °F - 28.4 °F 93% 30.31 in 0.8 mi Calm Calm - N/A   Mist
2:52 AM 28.9 °F - 28.0 °F 96% 30.34 in 0.5 mi Calm Calm - N/A Fog Light Freezing Fog
2:59 AM 28.4 °F - 26.6 °F 93% 30.31 in 1.2 mi Calm Calm - N/A   Scattered Clouds
3:13 AM 28.4 °F - 26.6 °F 93% 30.31 in 3.0 mi Calm Calm - N/A   Partly Cloudy
3:52 AM 28.9 °F - 27.0 °F 92% 30.33 in 10.0 mi Calm Calm - N/A   Clear
4:52 AM 28.9 °F - 26.1 °F 89% 30.35 in 10.0 mi Calm Calm - N/A   Clear
5:52 AM 28.0 °F - 25.0 °F 88% 30.35 in 10.0 mi Calm Calm - 0.00 in   Clear
7:52 AM 30.0 °F - 28.9 °F 96% 30.35 in 10.0 mi Calm Calm - N/A   Clear
8:52 AM 37.0 °F - 35.1 °F 93% 30.34 in 10.0 mi Calm Calm - N/A   Clear
9:52 AM 48.0 °F - 39.0 °F 71% 30.33 in 10.0 mi Calm Calm - N/A   Partly Cloudy
10:52 AM 53.1 °F - 39.9 °F 61% 30.32 in 10.0 mi Calm Calm - N/A   Partly Cloudy
11:52 AM 54.0 °F - 37.9 °F 55% 30.30 in 10.0 mi SSE 16.1 mph 20.7 mph N/A   Overcast
12:52 PM 54.0 °F - 37.9 °F 55% 30.28 in 10.0 mi South 13.8 mph 20.7 mph N/A   Overcast
1:52 PM 55.0 °F - 37.0 °F 51% 30.25 in 10.0 mi SSE 12.7 mph 17.3 mph N/A   Overcast
2:52 PM 55.0 °F - 37.0 °F 51% 30.23 in 10.0 mi South 10.4 mph - N/A   Overcast
3:52 PM 54.0 °F - 37.9 °F 55% 30.23 in 10.0 mi SSE 12.7 mph - N/A   Overcast
4:52 PM 53.1 °F - 39.0 °F 59% 30.21 in 10.0 mi SSE 10.4 mph - N/A   Overcast
5:52 PM 52.0 °F - 39.0 °F 61% 30.21 in 10.0 mi South 11.5 mph 17.3 mph N/A   Overcast
6:52 PM 50.0 °F - 39.9 °F 68% 30.20 in 10.0 mi South 10.4 mph - N/A   Overcast
7:52 PM 48.9 °F - 39.9 °F 71% 30.19 in 10.0 mi Variable 4.6 mph - N/A   Clear
8:52 PM 44.1 °F - 37.9 °F 79% 30.19 in 10.0 mi Calm Calm - N/A   Clear
9:52 PM 46.0 °F - 39.9 °F 79% 30.18 in 10.0 mi Calm Calm - N/A   Overcast
10:52 PM 46.0 °F 43.9 °F 41.0 °F 83% 30.16 in 10.0 mi WNW 4.6 mph - N/A   Overcast
11:52 PM 42.1 °F 40.2 °F 39.0 °F 89% 30.14 in 10.0 mi West 3.5 mph - N/A   Clear